Weather History for Sedona, AZ

Change the Weather History Date:

Friday, February 15, 2013

  Actual Average Record
Temperature  
Mean Temperature 52 °F -  
Max Temperature 62 °F 58 °F 77 °F (2014)
Min Temperature 42 °F 32 °F 32 °F (2012)
Degree Days  
Heating Degree Days 13    
Growing Degree Days 2 (Base 50)    
Moisture  
Dew Point 15 °F    
Average Humidity 26    
Maximum Humidity 39    
Minimum Humidity 13    
Precipitation  
Precipitation 0.00 in - - ()
Sea Level Pressure  
Sea Level Pressure 30.31 in    
Wind  
Wind Speed 11 mph (ENE)    
Max Wind Speed 20 mph    
Max Gust Speed 29 mph    
Visibility 10 miles    
Events      
Averages and records for this station are not official NWS values.
T = Trace of Precipitation, MM = Missing Value Source: NWS Daily Summary

Daily Weather History Graph

Daily Weather History Graph

Search for Another Location

Airport:

Trip Planner

Search our weather history database for the weather conditions in past years. The results will help you decide how hot, cold, wet, or windy it might be!

Date:

Astronomy

Feb. 15, 2013 Rise Set
Actual Time 7:12 AM MST 6:10 PM MST
Civil Twilight 6:46 AM MST 6:36 PM MST
Nautical Twilight 6:17 AM MST 7:05 PM MST
Astronomical Twilight 5:47 AM MST 7:35 PM MST
Moon 10:06 AM MST (2/15) 11:57 PM MST (2/15)
Length of Visible Light 11h 49m
Length of Day
10h 57m
Waxing Crescent, 31% of the Moon is Illuminated
Feb 15
Waxing Crescent
Feb 17
First Quarter
Feb 25
Full
Mar 4
Last Quarter
Mar 11
New

Hourly Weather History & Observations

Time (MST) Temp. Windchill Dew Point Humidity Pressure Visibility Wind Dir Wind Speed Gust Speed Precip Events Conditions
12:15 AM 46.4 °F 41.5 °F 19.4 °F 34% 30.25 in 10.0 mi North 10.4 mph 18.4 mph N/A   Clear
12:35 AM 46.4 °F 41.1 °F 19.4 °F 34% 30.25 in 10.0 mi ENE 11.5 mph 19.6 mph N/A   Clear
12:55 AM 44.6 °F 39.2 °F 19.4 °F 37% 30.25 in 10.0 mi ENE 10.4 mph - N/A   Clear
1:15 AM 44.6 °F 38.4 °F 19.4 °F 37% 30.25 in 10.0 mi NE 12.7 mph 23.0 mph N/A   Clear
1:35 AM 44.6 °F 37.2 °F 19.4 °F 37% 30.25 in 10.0 mi NNE 17.3 mph 26.5 mph N/A   Clear
1:55 AM 44.6 °F 36.6 °F 19.4 °F 37% 30.25 in 10.0 mi NE 19.6 mph 28.8 mph N/A   Clear
2:15 AM 44.6 °F 37.4 °F 19.4 °F 37% 30.25 in 10.0 mi NE 16.1 mph 26.5 mph N/A   Clear
2:35 AM 44.6 °F 36.9 °F 19.4 °F 37% 30.25 in 10.0 mi NE 18.4 mph 28.8 mph N/A   Clear
2:55 AM 44.6 °F 36.6 °F 19.4 °F 37% 30.25 in 10.0 mi NNE 19.6 mph 25.3 mph N/A   Clear
3:15 AM 44.6 °F 37.2 °F 19.4 °F 37% 30.25 in 10.0 mi NNE 17.3 mph 26.5 mph N/A   Clear
3:35 AM 44.6 °F 38.1 °F 19.4 °F 37% 30.25 in 10.0 mi NE 13.8 mph 24.2 mph N/A   Clear
3:55 AM 44.6 °F 37.8 °F 19.4 °F 37% 30.24 in 10.0 mi NNE 15.0 mph 24.2 mph N/A   Clear
4:15 AM 44.6 °F 38.1 °F 19.4 °F 37% 30.24 in 10.0 mi NNE 13.8 mph 18.4 mph N/A   Clear
4:35 AM 42.8 °F 37.0 °F 19.4 °F 39% 30.25 in 10.0 mi NNE 10.4 mph 16.1 mph N/A   Clear
4:55 AM 42.8 °F 36.2 °F 17.6 °F 36% 30.25 in 10.0 mi NNE 12.7 mph - N/A   Clear
5:15 AM 42.8 °F 35.8 °F 17.6 °F 36% 30.26 in 10.0 mi NE 13.8 mph 18.4 mph N/A   Clear
5:35 AM 42.8 °F 36.2 °F 17.6 °F 36% 30.26 in 10.0 mi NE 12.7 mph 20.7 mph N/A   Clear
5:55 AM 42.8 °F 36.6 °F 19.4 °F 39% 30.26 in 10.0 mi NNE 11.5 mph - N/A   Clear
6:15 AM 42.8 °F 36.2 °F 17.6 °F 36% 30.26 in 10.0 mi North 12.7 mph 19.6 mph N/A   Clear
6:35 AM 42.8 °F 36.6 °F 17.6 °F 36% 30.27 in 10.0 mi NNE 11.5 mph 19.6 mph N/A   Clear
6:55 AM 42.8 °F 35.8 °F 17.6 °F 36% 30.28 in 10.0 mi NNE 13.8 mph 19.6 mph N/A   Clear
7:15 AM 42.8 °F 37.5 °F 17.6 °F 36% 30.29 in 10.0 mi NNE 9.2 mph 16.1 mph N/A   Clear
7:35 AM 42.8 °F 37.5 °F 19.4 °F 39% 30.30 in 10.0 mi NNE 9.2 mph - N/A   Clear
7:55 AM 42.8 °F 36.6 °F 19.4 °F 39% 30.30 in 10.0 mi NE 11.5 mph 18.4 mph N/A   Clear
8:15 AM 44.6 °F 40.7 °F 21.2 °F 39% 30.31 in 10.0 mi East 6.9 mph - N/A   Clear
8:35 AM 46.4 °F 45.2 °F 21.2 °F 37% 30.33 in 10.0 mi East 3.5 mph - N/A   Clear
8:55 AM 48.2 °F - 23.0 °F 37% 30.34 in 10.0 mi East 6.9 mph - N/A   Clear
9:15 AM 50.0 °F - 23.0 °F 35% 30.34 in 10.0 mi East 6.9 mph - N/A   Clear
9:35 AM 50.0 °F - 23.0 °F 35% 30.34 in 10.0 mi ENE 10.4 mph 21.9 mph N/A   Clear
9:55 AM 51.8 °F - 21.2 °F 30% 30.34 in 10.0 mi ENE 10.4 mph 17.3 mph N/A   Clear
10:15 AM 53.6 °F - 21.2 °F 28% 30.34 in 10.0 mi East 9.2 mph 23.0 mph N/A   Clear
10:35 AM 55.4 °F - 21.2 °F 26% 30.35 in 10.0 mi East 12.7 mph 18.4 mph N/A   Clear
10:55 AM 55.4 °F - 19.4 °F 25% 30.34 in 10.0 mi ESE 12.7 mph 16.1 mph N/A   Clear
11:15 AM 59.0 °F - 19.4 °F 22% 30.34 in 10.0 mi East 11.5 mph 16.1 mph N/A   Clear
11:35 AM 59.0 °F - 19.4 °F 22% 30.34 in 10.0 mi East 13.8 mph 19.6 mph N/A   Clear
11:55 AM 59.0 °F - 19.4 °F 22% 30.33 in 10.0 mi ESE 6.9 mph - N/A   Clear
12:15 PM 62.6 °F - 17.6 °F 18% 30.32 in 10.0 mi East 10.4 mph - N/A   Clear
12:35 PM 60.8 °F - 17.6 °F 19% 30.32 in 10.0 mi East 11.5 mph 18.4 mph N/A   Clear
12:55 PM 62.6 °F - 17.6 °F 18% 30.31 in 10.0 mi ESE 15.0 mph 20.7 mph N/A   Clear
1:15 PM 62.6 °F - 15.8 °F 16% 30.30 in 10.0 mi East 11.5 mph 18.4 mph N/A   Clear
1:35 PM 62.6 °F - 14.0 °F 15% 30.29 in 10.0 mi East 12.7 mph 19.6 mph N/A   Clear
1:55 PM 62.6 °F - 14.0 °F 15% 30.29 in 10.0 mi East 12.7 mph 18.4 mph N/A   Clear
2:15 PM 62.6 °F - 14.0 °F 15% 30.29 in 10.0 mi East 8.1 mph 18.4 mph N/A   Clear
2:35 PM 62.6 °F - 12.2 °F 14% 30.29 in 10.0 mi East 12.7 mph 21.9 mph N/A   Clear
2:55 PM 62.6 °F - 12.2 °F 14% 30.29 in 10.0 mi East 8.1 mph - N/A   Clear
3:15 PM 62.6 °F - 12.2 °F 14% 30.29 in 10.0 mi ENE 5.8 mph - N/A   Clear
3:35 PM 62.6 °F - 10.4 °F 13% 30.29 in 10.0 mi NE 10.4 mph 18.4 mph N/A   Clear
3:55 PM 62.6 °F - 12.2 °F 14% 30.30 in 10.0 mi East 9.2 mph 18.4 mph N/A   Clear
4:15 PM 62.6 °F - 10.4 °F 13% 30.30 in 10.0 mi East 11.5 mph 18.4 mph N/A   Clear
4:35 PM 60.8 °F - 10.4 °F 14% 30.30 in 10.0 mi East 15.0 mph 23.0 mph N/A   Clear
4:55 PM 59.0 °F - 10.4 °F 15% 30.30 in 10.0 mi East 17.3 mph - N/A   Clear
5:15 PM 59.0 °F - 10.4 °F 15% 30.30 in 10.0 mi East 11.5 mph - N/A   Clear
5:35 PM 55.4 °F - 10.4 °F 17% 30.30 in 10.0 mi East 10.4 mph - N/A   Clear
5:55 PM 55.4 °F - 10.4 °F 17% 30.32 in 10.0 mi ENE 9.2 mph - N/A   Clear
6:15 PM 53.6 °F - 8.6 °F 16% 30.32 in 10.0 mi ENE 9.2 mph - N/A   Clear
6:35 PM 51.8 °F - 10.4 °F 19% 30.32 in 10.0 mi East 8.1 mph - N/A   Clear
6:55 PM 51.8 °F - 10.4 °F 19% 30.33 in 10.0 mi ENE 9.2 mph - N/A   Clear
7:15 PM 50.0 °F - 10.4 °F 20% 30.34 in 10.0 mi ENE 6.9 mph - N/A   Clear
7:35 PM 50.0 °F - 8.6 °F 19% 30.35 in 10.0 mi NE 8.1 mph - N/A   Clear
7:55 PM 50.0 °F - 8.6 °F 19% 30.36 in 10.0 mi ENE 5.8 mph - N/A   Clear
8:15 PM 50.0 °F - 8.6 °F 19% 30.36 in 10.0 mi East 5.8 mph - N/A   Clear
8:35 PM 48.2 °F - 8.6 °F 20% 30.37 in 10.0 mi East 4.6 mph - N/A   Clear
8:55 PM 48.2 °F - 8.6 °F 20% 30.37 in 10.0 mi NE 5.8 mph - N/A   Clear
9:15 PM 46.4 °F 43.5 °F 10.4 °F 23% 30.38 in 10.0 mi ENE 5.8 mph - N/A   Clear
9:35 PM 46.4 °F 45.2 °F 10.4 °F 23% 30.38 in 10.0 mi East 3.5 mph - N/A   Clear
9:55 PM 46.4 °F 45.2 °F 10.4 °F 23% 30.39 in 10.0 mi East 3.5 mph - N/A   Clear
10:15 PM 46.4 °F 44.3 °F 10.4 °F 23% 30.39 in 10.0 mi East 4.6 mph - N/A   Clear
10:35 PM 44.6 °F 41.4 °F 10.4 °F 25% 30.39 in 10.0 mi ENE 5.8 mph - N/A   Clear
10:55 PM 44.6 °F 40.7 °F 10.4 °F 25% 30.39 in 10.0 mi ENE 6.9 mph - N/A   Clear
11:15 PM 46.4 °F 43.5 °F 8.6 °F 22% 30.39 in 10.0 mi ENE 5.8 mph - N/A   Clear
11:35 PM 46.4 °F 43.5 °F 8.6 °F 22% 30.39 in 10.0 mi ENE 5.8 mph - N/A   Clear
11:55 PM 44.6 °F 40.2 °F 10.4 °F 25% 30.39 in 10.0 mi NNE 8.1 mph - N/A   Clear